{"data":{"norad_id":67900,"intl_designator":"2026-035X","name":"STARLINK-36361","alt_names":[],"object_type":"PAYLOAD","status":"ACTIVE","operator":null,"country":"US","launch_date":"2026-02-21","launch_site_code":"AFWTR","launch_vehicle":null,"mission":null,"orbit_class":"UNKNOWN","rcs_meters":null,"size_class":null,"mass_kg":null,"dimensions":null,"purposes":["comms"],"wikipedia_slug":null,"has_3d_model":false,"image_url":null,"decayed_at":null,"tle_current":{"epoch":"2026-09-19T13:36:50.380128Z","epoch_age_seconds":143847,"freshness":"FRESH","line1":"1 67900U 26035X   26262.56724977  .00015749  00000+0  48901-3 0  9993","line2":"2 67900  97.2855 194.4858 0002433  93.3178 266.8343 15.33450671 33702","mean_motion":15.33450671,"eccentricity":0.0002433,"inclination_deg":97.2855,"raan_deg":194.4858,"arg_perigee_deg":93.3178,"mean_anomaly_deg":266.8343,"bstar":0.00048901,"rev_number":3370,"period_min":93.905857373354,"perigee_km":463.86123834273,"apogee_km":467.1913649053,"semimajor_km":6843.663301624,"source":"CELESTRAK","updated_at":"2026-09-20T09:00:43.699916Z"}}}